Content
SEND FEEDBACK

Daily
Averages
Monthly
Summary
United States of America

CHESTERFIELD, MISSOURI


Home > North America > United States > Missouri
Elevation: 559 feet     Latitude: 38 41N     Longitude: 090 31W

WEATHER
 
SELECT A DAY
Number of Records: 205,864;   Date Range: 1/1/95 - 10/1/14
 
SHARE

PRINT THIS DATA

[ ← Previous Day ]
WEATHER ALMANAC - JANUARY 3, 2013
[ Next Day → ]
[ °C ]   °F
Weather ElementAverageHighLow
Temperature31.4 °F39.2 °F (1:51 pm)21.9 °F (6:51 am)
Dewpoint21.3 °F24.8 °F (1:51 pm)16 °F (1:51 am)
Humidity66.4 %78 % (6:51 am)53 % (2:51 pm)
Barometer30.37 in30.43 in (7:51 pm)30.26 in (1:51 am)
Wind Speed7.7 mph12.7 mph (1:51 pm)
Wind Gust20.7 mph (1:51 pm)
Weather ElementAverage
Visibility9.4 mi
Wind DirectionW (269.6 °)

Weather ElementTotal
Precipitation---
Heating Degree Days34.5 (Base 65)
Averaged from 23 records on January 3, 2013
WEATHER CONDITIONS BREAKOUT
WIND DIRECTION BREAKOUT
WEATHER BY HOUR - JANUARY 3, 2013
[ °C ]   °F
Local TimeTemperatureDewpointHumidityBarometerVisibilityWind DirectionWind SpeedGust SpeedPrecipitationEventsConditions
1:51 AM26.1 °F16.0 °F66 %30.26 in10.0 miWSW (250°)8.1 mphPartly Cloudy
2:51 AM25.0 °F16.0 °F69 %30.28 in10.0 miWest (270°)6.9 mphScattered Clouds
3:51 AM26.1 °F18.0 °F71 %30.28 in10.0 miWest (270°)6.9 mphMostly Cloudy
4:51 AM23.0 °F16.0 °F74 %30.29 in10.0 miWest (270°)5.8 mphClear
5:51 AM23.0 °F16.0 °F74 %30.31 in10.0 miWest (260°)3.5 mphClear
6:51 AM21.9 °F16.0 °F78 %30.33 in8.0 miWest (260°)5.8 mphClear
7:51 AM24.1 °F18.0 °F77 %30.35 in7.0 miWSW (250°)5.8 mphPartly Cloudy
8:51 AM28.9 °F21.0 °F72 %30.36 in7.0 miWest (260°)8.1 mphPartly Cloudy
9:51 AM30.0 °F21.9 °F72 %30.40 in7.0 miWSW (250°)10.4 mphPartly Cloudy
10:51 AM33.1 °F23.0 °F66 %30.40 in8.0 miWSW (250°)8.1 mphClear
11:51 AM36.0 °F24.1 °F62 %30.38 in9.0 miWSW (250°)8.1 mphClear
12:51 PM39.0 °F24.1 °F55 %30.36 in10.0 miWest (260°)10.4 mphPartly Cloudy
1:51 PM39.2 °F24.8 °F56 %30.32 in10.0 miWNW (290°)12.7 mph20.7 mphPartly Cloudy
2:51 PM39.0 °F23.0 °F53 %30.37 in10.0 miWNW (300°)12.7 mphMostly Cloudy
3:51 PM39.0 °F24.1 °F55 %30.37 in10.0 miWNW (290°)9.2 mphPartly Cloudy
4:51 PM35.1 °F23.0 °F61 %30.39 in10.0 miNW (310°)6.9 mphPartly Cloudy
5:51 PM34.0 °F21.9 °F61 %30.41 in10.0 miWest (260°)4.6 mphScattered Clouds
6:51 PM34.0 °F24.1 °F67 %30.42 in10.0 miWNW (290°)6.9 mphMostly Cloudy
7:51 PM35.1 °F24.1 °F64 %30.43 in10.0 miWest (280°)6.9 mphMostly Cloudy
8:51 PM35.1 °F24.1 °F64 %30.43 in10.0 miWest (260°)5.8 mphMostly Cloudy
9:51 PM35.1 °F24.1 °F64 %30.43 in10.0 miWest (270°)10.4 mphMostly Cloudy
10:51 PM30.9 °F23.0 °F72 %30.43 in10.0 miWest (280°)8.1 mphPartly Cloudy
11:51 PM30.0 °F23.0 °F75 %30.43 in10.0 miWest (270°)5.8 mphClear
Hourly data recorded from KSTL, located miles away from Chesterfield, Missouri







STORIES FROM OUR PARTNERS